SCP
-0 -0 0 0 0 0 0 0 0 0 0 0 0 0 0 0 0 0 0 0 -0 -0 -0 0 -0 -0 -0 -0 -0 -0 -0 -0 -0 -0 -0 -0 -0 -0 -0 -0 -0 -0 -0
0 -0 0 0 0 0 0 0 -0 0 -0 0 0 0 0 0 0 0 -0 -0 -0 -0 -0 -0 -0 -0 -0 -0 0 0 0 0 0 0 -0 -0 -0 -0 -0 -0 -0 -0 -0
0 0 0 0 0 0 0 0 0 -0 0 -0 -0 0 0 0 0 0 -0 -0 -0 -0 -0 -0 -0 -0 -0 -0 -0 -0 -0 0 0 0 0 0 -0 -0 -0 -0 -0 -0 -0
0 0 -0 0 0 0 0 -0 -0 -0 0 -0 -0 0 0 0 0 0 -0 -0 -0 -0 -0 -0 -0 0 0 0 0 -0 0 0 0 0 0 0 0 -0 -0 -0 -0 -0 -0
0 0 0 0 0 0 0 -0 -0 -0 0 -0 0 0 -0 -0 0 -0 0 0 0 0 -0 -0 -0 0 0 0 0 -0 0 -0 0 0 0 0 0 -0 -0 -0 -0 -0 -0
0 0 0 0 0 0 0 0 -0 -0 0 -0 0 -0 -0 0 -0 -0 0 0 0 0 0 0 0 0 -0 0 0 0 0 0 0 0 0 0 -0 -0 -0 -0 -0 -0 -0
0 -0 0 0 0 0 0 -0 0 0 0 0 0 -0 0 0 0 -0 0 0 0 0 0 0 -0 0 0 0 0 0 -0 -0 0 -0 -0 -0 -0 -0 -0 -0 -0 -0 -0
0 -0 -0 0 0 0 -0 -0 0 0 0 0 0 0 0 0 0 0 0 0 0 0 0 0 0 0 0 0 0 0 0 -0 0 -0 0 -0 0 -0 -0 -0 -0 -0 -0
0 -0 -0 -0 -0 0 0 -0 -0 0 -0 0 0 0 0 0 0 0 0 0 0 0 0 0 0 0 0 0 0 0 0 -0 0 -0 -0 -0 0 -0 -0 -0 -0 -0 -0
-0 -0 -0 -0 -0 -0 -0 0 -0 0 -0 0 0 0 0 0 0 0 0 0 0 0 0 0 0 0 0 0 0 0 -0 -0 0 -0 0 -0 0 -0 -0 -0 -0 -0 -0
-0 -0 -0 -0 -0 -0 -0 -0 -0 0 0 0 0 0 0 0 0 0 0 0 0 0 0 0 -0 0 0 0 -0 0 -0 0 0 0 0 0 0 -0 -0 -0 -0 -0 -0
0 -0 -0 -0 -0 -0 0 0 0 0 0 0 0 0 0 0 0 0 0 0 0 0 0 0 0 0 0 -0 -0 -0 0 0 0 0 0 0 0 -0 -0 -0 -0 -0 -0
0 -0 -0 -0 -0 -0 0 0 0 0 0 0 0 0 0 0 0 0 0 0 0 0 0 -0 -0 -0 0 0 0 -0 0 0 0 0 0 0 0 0 0 0 0 0 0
0 0 -0 -0 -0 -0 0 0 0 -0 0 0 0 0 0 0 0 0 -0 -0 0 0 0 -0 0 0 0 0 0 0 0 0 0 0 0 0 0 0 0 0 0 0 0
0 -0 -0 -0 -0 -0 0 0 0 -0 -0 0 0 0 -0 0 0 -0 -0 -0 0 0 0 0 0 0 0 0 0 0 0 0 0 0 0 0 0 0 0 0 0 0 0
0 -0 -0 -0 -0 -0 0 0 -0 -0 0 0 0 0 0 0 0 0 0 0 0 0 0 -0 -0 -0 0 -0 0 0 0 0 0 0 0 0 0 0 0 0 0 0 0
-0 -0 -0 -0 -0 -0 -0 0 -0 -0 0 0 -0 0 0 0 0 0 0 0 0 0 -0 -0 0 -0 -0 0 0 0 0 0 0 0 0 0 0 0 0 0 0 0 0
0 -0 -0 -0 -0 -0 -0 -0 -0 -0 0 0 0 0 0 0 0 0 0 0 0 -0 0 -0 -0 0 0 -0 0 0 0 0 0 0 0 0 0 0 0 0 0 0 0
-0 -0 -0 -0 -0 -0 -0 -0 -0 -0 0 0 -0 0 0 0 0 0 0 0 0 0 0 -0 -0 0 0 -0 -0 0 0 0 0 0 0 0 0 0 0 0 0 0 0
-0 -0 -0 -0 -0 -0 -0 -0 -0 -0 -0 -0 0 0 0 0 0 0 0 0 0 0 0 0 -0 -0 -0 0 -0 -0 0 0 0 0 0 0 0 0 0 0 0 0 0
0 -0 -0 -0 -0 -0 0 0 -0 -0 -0 -0 -0 0 -0 0 0 0 0 0 0 0 0 -0 -0 -0 -0 0 -0 -0 -0 -0 0 0 0 0 0 0 0 0 0 0 0
-0 -0 0 -0 -0 -0 0 0 0 0 0 0 0 0 0 0 0 0 0 0 0 0 0 0 0 -0 0 0 0 0 0 0 0 0 0 0 0 0 0 0 0 0 0
-0 0 0 0 -0 0 0 0 0 0 0 0 0 0 0 0 0 0 0 0 0 0 0 0 0 0 0 0 0 -0 0 0 0 0 0 0 0 0 0 0 0 0 0
0 0 0 0 -0 0 0 0 0 0 0 0 0 0 0 0 0 0 0 0 0 -0 0 0 0 -0 -0 0 0 -0 0 0 0 0 0 0 0 0 0 0 0 0 0
0 0 0 0 0 0 0 0 0 0 0 0 0 0 0 0 0 0 0 0 -0 -0 -0 0 0 0 -0 -0 0 0 0 0 0 0 0 0 0 0 0 0 0 0 0
0 0 0 0 0 -0 0 0 0 0 0 0 0 0 0 0 0 -0 -0 -0 -0 -0 -0 -0 -0 -0 -0 -0 -0 0 0 0 0 0 0 0 0 0 0 0 0 0 0
Wind_Speed_500mb
53 58 52 48 42 38 35 33 31 29 27 26 24 22 21 20 19 17 18 19 18 14 12 13 14 12 13 14 14 14 14 13 16 20 24 22 21 20 23 24 25 26 27
60 57 51 46 42 38 32 31 30 29 28 27 24 25 24 22 21 20 19 17 17 18 23 18 16 19 21 19 17 16 17 19 24 22 20 21 20 21 23 27 26 27 28
61 58 50 44 42 37 32 31 31 28 27 26 24 24 23 24 23 23 21 19 22 23 19 19 21 24 24 26 26 20 22 24 21 21 22 20 23 23 26 26 26 26 28
62 58 49 44 40 37 33 33 31 30 29 28 27 26 24 24 25 26 23 24 23 22 23 22 24 26 26 26 28 27 25 23 23 23 24 24 23 23 22 24 25 25 26
64 58 48 44 40 37 34 34 30 30 28 28 28 27 26 25 26 26 25 26 26 27 26 25 26 27 26 28 28 25 26 28 24 22 20 17 18 21 21 24 24 25 26
64 58 49 43 40 37 34 33 31 33 33 29 26 25 26 26 25 26 27 26 25 25 23 24 27 27 27 27 23 23 24 22 24 23 21 22 23 24 20 22 23 25 25
64 58 50 43 39 36 33 32 30 34 32 30 28 23 24 25 26 27 27 26 26 25 24 21 23 28 32 30 30 30 25 21 22 25 24 22 20 19 19 21 23 23 24
64 59 50 42 38 36 30 30 31 35 31 28 28 25 25 28 30 30 28 28 28 26 21 19 22 24 25 28 27 25 22 23 24 25 22 20 19 17 20 19 21 21 24
60 57 49 42 37 35 33 28 29 31 28 28 27 27 28 31 32 30 28 28 27 24 23 22 20 22 24 24 23 22 22 23 22 22 20 20 17 18 19 19 20 19 20
59 54 48 43 38 35 33 30 30 30 27 27 27 28 28 30 29 27 26 26 24 28 27 28 25 25 23 23 23 22 19 21 19 17 19 18 17 16 18 19 20 18 19
58 54 49 44 39 36 32 31 31 29 27 27 27 27 26 24 24 24 23 24 25 25 27 27 25 21 20 20 22 19 16 14 16 14 16 18 17 13 16 16 17 16 16
62 57 51 44 41 37 33 31 31 29 28 28 29 26 24 21 21 20 19 18 22 21 24 25 24 21 17 17 21 19 17 11 13 13 14 16 15 14 13 16 14 14 14
65 59 53 46 41 36 32 31 29 30 32 27 25 24 20 15 15 17 17 16 19 19 18 20 23 18 13 17 18 13 13 12 10 10 12 14 13 16 12 16 11 14 13
67 61 54 49 43 37 32 31 29 31 26 24 25 21 17 16 13 16 19 19 17 18 16 14 13 14 10 9 14 14 9 9 7 9 8 12 13 12 11 13 11 11 11
68 62 56 50 45 39 35 33 32 30 27 23 20 21 19 16 12 15 18 13 12 9 13 14 13 10 9 14 10 11 8 4 7 9 9 9 11 10 9 9 8 8 9
67 62 56 51 46 41 37 34 33 30 32 23 24 21 19 14 10 10 13 10 11 11 9 10 7 10 17 12 9 8 6 7 7 8 8 7 8 9 7 7 6 6 6
70 63 59 52 46 44 40 36 38 32 32 23 21 19 18 10 12 12 9 13 12 8 3 8 9 7 14 8 5 9 10 11 9 8 11 10 6 8 8 5 4 3 3
71 67 60 54 50 46 45 43 40 35 29 23 19 18 16 13 12 6 9 13 11 11 6 8 5 8 12 13 10 11 13 11 7 8 8 12 10 7 5 7 3 2 2
73 70 64 59 54 52 46 46 42 34 28 25 25 19 14 8 9 6 7 14 9 9 5 2 3 7 7 15 5 8 9 8 5 6 6 9 9 8 7 6 3 2 2
73 70 65 61 57 58 48 49 44 37 32 30 28 26 18 12 7 10 10 9 9 4 5 9 3 7 12 15 9 5 9 5 3 4 5 4 4 5 4 2 4 4 3
74 74 70 65 65 63 61 57 53 44 36 35 33 26 23 16 9 8 10 9 10 7 9 11 9 4 13 16 13 7 3 4 3 7 7 7 4 1 2 3 4 3 6
78 78 75 69 71 68 66 61 58 47 38 34 33 29 26 20 16 12 9 11 9 8 9 9 6 12 11 15 15 10 6 6 7 7 5 4 6 6 3 4 5 6 8
87 84 80 74 74 72 66 62 58 53 48 44 41 33 28 25 21 17 12 11 13 9 9 6 4 16 10 14 18 9 6 5 8 8 10 10 7 8 6 2 1 1 3
92 85 81 79 77 74 69 67 63 59 57 55 49 42 37 28 24 23 18 12 15 13 11 8 12 15 12 15 18 15 13 6 8 5 11 13 13 10 7 6 4 4 2
93 89 88 86 84 80 77 74 69 65 60 57 56 52 49 42 34 29 24 19 14 15 16 17 15 19 15 20 20 17 16 14 17 15 12 11 13 11 10 8 8 8 2
94 92 92 90 90 85 82 77 78 75 68 62 58 62 60 53 46 38 31 27 19 15 17 20 15 16 20 21 25 23 23 21 18 22 18 17 18 16 16 15 15 12 10
Wind_Direction_500mb
142 141 143 140 136 131 124 125 128 129 132 136 134 138 142 148 151 146 144 129 120 114 105 107 115 131 150 155 149 146 139 125 113 111 103 102 100 95 105 102 98 98 99
144 144 145 141 139 131 131 127 127 125 126 125 130 137 143 143 138 130 127 124 115 110 105 92 90 113 119 131 136 134 129 117 100 98 112 109 102 100 103 101 101 104 100
148 146 145 144 138 132 131 127 124 126 123 125 127 131 132 133 132 127 124 119 118 115 108 103 91 97 111 117 116 116 118 120 123 114 105 108 104 98 100 102 103 102 101
152 151 147 146 139 136 134 128 124 126 125 124 125 127 126 126 130 126 123 121 120 111 110 97 104 103 109 114 117 112 104 117 117 111 103 106 102 102 104 107 106 104 103
156 153 149 149 142 140 136 130 133 131 128 126 125 123 126 127 128 128 121 120 114 105 101 104 108 105 103 111 116 112 106 97 103 110 108 111 115 115 110 108 108 107 104
158 155 152 149 146 143 138 138 135 131 127 127 126 125 124 122 125 129 123 118 113 109 106 104 112 111 109 110 101 111 111 102 91 99 103 104 103 110 110 105 108 110 108
159 159 155 150 149 145 138 133 134 132 127 123 119 123 125 124 123 122 123 117 110 104 109 119 119 117 111 114 102 101 105 96 95 98 103 103 106 112 111 115 116 116 116
161 160 157 153 151 145 142 137 136 135 132 128 122 120 119 120 118 118 121 117 106 98 104 122 131 129 115 115 110 103 97 94 95 95 100 109 113 114 112 118 118 118 117
162 162 160 158 154 149 146 143 140 136 137 135 131 127 121 121 119 118 118 110 100 95 91 115 125 131 124 118 111 109 100 96 91 94 95 106 112 115 122 121 123 118 117
165 167 164 162 158 154 152 150 145 140 141 140 136 129 129 129 124 119 114 111 100 91 90 100 106 121 117 107 123 112 102 90 83 92 96 102 105 118 112 118 120 120 123
170 170 169 167 162 158 155 153 150 144 147 143 137 133 133 133 129 122 120 116 105 97 96 101 103 112 106 100 109 112 96 83 70 87 98 104 106 112 119 124 120 126 125
172 173 171 171 166 162 160 160 154 147 148 141 135 132 132 136 140 136 129 120 120 112 104 108 109 101 97 99 107 100 88 84 80 89 105 111 120 109 112 119 127 129 129
174 174 174 174 170 167 165 164 156 150 149 145 143 139 133 137 151 147 137 122 128 129 125 120 107 113 113 104 120 113 90 82 79 86 104 111 124 131 136 125 123 129 127
178 176 175 176 173 170 170 165 160 157 158 148 144 137 133 133 138 144 146 142 134 131 135 135 133 138 170 146 118 105 102 72 63 71 101 119 119 129 133 138 145 133 131
181 177 177 177 174 174 174 168 162 159 157 157 153 138 146 140 151 157 142 135 119 139 154 146 136 120 120 168 136 113 88 89 57 65 89 125 128 129 125 130 131 141 142
184 181 179 179 176 180 176 175 168 165 170 150 142 133 138 124 143 174 186 152 141 134 150 165 165 114 123 120 141 134 126 88 87 66 79 120 130 124 132 138 139 144 145
187 184 184 181 179 183 179 178 172 162 165 163 157 142 131 139 146 151 139 151 147 159 151 159 138 145 147 131 146 149 135 110 100 92 68 89 123 133 127 137 132 118 156
190 190 188 186 184 184 181 178 173 175 178 183 171 158 151 149 172 158 175 166 157 157 125 137 117 116 144 156 131 131 122 118 109 101 93 77 88 101 117 133 154 247 274
195 193 192 191 189 184 182 184 188 189 197 199 201 189 177 164 178 182 188 192 179 161 163 122 127 102 133 155 171 144 145 133 138 111 109 82 74 83 81 65 118 142 271
202 199 198 196 193 190 189 190 193 200 201 201 200 197 184 181 174 175 198 205 189 203 213 172 138 106 149 166 181 112 166 191 183 192 167 154 93 83 71 53 23 91 49
207 204 203 201 197 196 196 197 201 206 204 204 208 210 197 193 192 191 222 231 212 244 218 184 171 184 170 188 195 169 152 181 209 193 218 221 225 3 314 6 10 234 331
208 208 206 207 202 200 202 204 211 213 209 213 217 215 210 209 211 212 228 232 234 242 220 231 243 217 173 181 194 187 195 186 202 230 229 227 234 251 268 310 312 299 297
215 212 209 208 204 203 204 206 212 215 218 220 219 222 222 222 224 225 229 229 234 256 242 250 223 194 200 186 191 195 212 224 222 236 228 228 245 263 248 200 262 310 215
217 216 212 208 207 207 209 213 216 219 221 225 231 235 237 236 233 231 229 237 243 239 234 247 224 209 218 201 184 200 229 244 218 259 246 236 240 236 217 198 177 132 115
222 221 218 216 215 215 216 220 223 224 227 231 234 237 240 242 240 236 235 236 241 236 234 239 234 224 229 210 205 223 242 241 235 262 290 272 266 256 237 221 218 219 200
221 225 222 220 220 219 221 225 229 230 231 234 239 239 239 242 243 239 238 238 241 238 233 234 244 234 225 225 230 243 252 250 247 254 272 286 285 275 260 257 253 249 248
Wind_Speed_850mb
53 58 52 48 42 38 35 33 31 29 27 26 24 22 21 20 19 17 18 19 18 14 12 13 14 12 13 14 14 14 14 13 16 20 24 22 21 20 23 24 25 26 27
60 57 51 46 42 38 32 31 30 29 28 27 24 25 24 22 21 20 19 17 17 18 23 18 16 19 21 19 17 16 17 19 24 22 20 21 20 21 23 27 26 27 28
61 58 50 44 42 37 32 31 31 28 27 26 24 24 23 24 23 23 21 19 22 23 19 19 21 24 24 26 26 20 22 24 21 21 22 20 23 23 26 26 26 26 28
62 58 49 44 40 37 33 33 31 30 29 28 27 26 24 24 25 26 23 24 23 22 23 22 24 26 26 26 28 27 25 23 23 23 24 24 23 23 22 24 25 25 26
64 58 48 44 40 37 34 34 30 30 28 28 28 27 26 25 26 26 25 26 26 27 26 25 26 27 26 28 28 25 26 28 24 22 20 17 18 21 21 24 24 25 26
64 58 49 43 40 37 34 33 31 33 33 29 26 25 26 26 25 26 27 26 25 25 23 24 27 27 27 27 23 23 24 22 24 23 21 22 23 24 20 22 23 25 25
64 58 50 43 39 36 33 32 30 34 32 30 28 23 24 25 26 27 27 26 26 25 24 21 23 28 32 30 30 30 25 21 22 25 24 22 20 19 19 21 23 23 24
64 59 50 42 38 36 30 30 31 35 31 28 28 25 25 28 30 30 28 28 28 26 21 19 22 24 25 28 27 25 22 23 24 25 22 20 19 17 20 19 21 21 24
60 57 49 42 37 35 33 28 29 31 28 28 27 27 28 31 32 30 28 28 27 24 23 22 20 22 24 24 23 22 22 23 22 22 20 20 17 18 19 19 20 19 20
59 54 48 43 38 35 33 30 30 30 27 27 27 28 28 30 29 27 26 26 24 28 27 28 25 25 23 23 23 22 19 21 19 17 19 18 17 16 18 19 20 18 19
58 54 49 44 39 36 32 31 31 29 27 27 27 27 26 24 24 24 23 24 25 25 27 27 25 21 20 20 22 19 16 14 16 14 16 18 17 13 16 16 17 16 16
62 57 51 44 41 37 33 31 31 29 28 28 29 26 24 21 21 20 19 18 22 21 24 25 24 21 17 17 21 19 17 11 13 13 14 16 15 14 13 16 14 14 14
65 59 53 46 41 36 32 31 29 30 32 27 25 24 20 15 15 17 17 16 19 19 18 20 23 18 13 17 18 13 13 12 10 10 12 14 13 16 12 16 11 14 13
67 61 54 49 43 37 32 31 29 31 26 24 25 21 17 16 13 16 19 19 17 18 16 14 13 14 10 9 14 14 9 9 7 9 8 12 13 12 11 13 11 11 11
68 62 56 50 45 39 35 33 32 30 27 23 20 21 19 16 12 15 18 13 12 9 13 14 13 10 9 14 10 11 8 4 7 9 9 9 11 10 9 9 8 8 9
67 62 56 51 46 41 37 34 33 30 32 23 24 21 19 14 10 10 13 10 11 11 9 10 7 10 17 12 9 8 6 7 7 8 8 7 8 9 7 7 6 6 6
70 63 59 52 46 44 40 36 38 32 32 23 21 19 18 10 12 12 9 13 12 8 3 8 9 7 14 8 5 9 10 11 9 8 11 10 6 8 8 5 4 3 3
71 67 60 54 50 46 45 43 40 35 29 23 19 18 16 13 12 6 9 13 11 11 6 8 5 8 12 13 10 11 13 11 7 8 8 12 10 7 5 7 3 2 2
73 70 64 59 54 52 46 46 42 34 28 25 25 19 14 8 9 6 7 14 9 9 5 2 3 7 7 15 5 8 9 8 5 6 6 9 9 8 7 6 3 2 2
73 70 65 61 57 58 48 49 44 37 32 30 28 26 18 12 7 10 10 9 9 4 5 9 3 7 12 15 9 5 9 5 3 4 5 4 4 5 4 2 4 4 3
74 74 70 65 65 63 61 57 53 44 36 35 33 26 23 16 9 8 10 9 10 7 9 11 9 4 13 16 13 7 3 4 3 7 7 7 4 1 2 3 4 3 6
78 78 75 69 71 68 66 61 58 47 38 34 33 29 26 20 16 12 9 11 9 8 9 9 6 12 11 15 15 10 6 6 7 7 5 4 6 6 3 4 5 6 8
87 84 80 74 74 72 66 62 58 53 48 44 41 33 28 25 21 17 12 11 13 9 9 6 4 16 10 14 18 9 6 5 8 8 10 10 7 8 6 2 1 1 3
92 85 81 79 77 74 69 67 63 59 57 55 49 42 37 28 24 23 18 12 15 13 11 8 12 15 12 15 18 15 13 6 8 5 11 13 13 10 7 6 4 4 2
93 89 88 86 84 80 77 74 69 65 60 57 56 52 49 42 34 29 24 19 14 15 16 17 15 19 15 20 20 17 16 14 17 15 12 11 13 11 10 8 8 8 2
94 92 92 90 90 85 82 77 78 75 68 62 58 62 60 53 46 38 31 27 19 15 17 20 15 16 20 21 25 23 23 21 18 22 18 17 18 16 16 15 15 12 10
Wind_Direction_850mb
142 141 143 140 136 131 124 125 128 129 132 136 134 138 142 148 151 146 144 129 120 114 105 107 115 131 150 155 149 146 139 125 113 111 103 102 100 95 105 102 98 98 99
144 144 145 141 139 131 131 127 127 125 126 125 130 137 143 143 138 130 127 124 115 110 105 92 90 113 119 131 136 134 129 117 100 98 112 109 102 100 103 101 101 104 100
148 146 145 144 138 132 131 127 124 126 123 125 127 131 132 133 132 127 124 119 118 115 108 103 91 97 111 117 116 116 118 120 123 114 105 108 104 98 100 102 103 102 101
152 151 147 146 139 136 134 128 124 126 125 124 125 127 126 126 130 126 123 121 120 111 110 97 104 103 109 114 117 112 104 117 117 111 103 106 102 102 104 107 106 104 103
156 153 149 149 142 140 136 130 133 131 128 126 125 123 126 127 128 128 121 120 114 105 101 104 108 105 103 111 116 112 106 97 103 110 108 111 115 115 110 108 108 107 104
158 155 152 149 146 143 138 138 135 131 127 127 126 125 124 122 125 129 123 118 113 109 106 104 112 111 109 110 101 111 111 102 91 99 103 104 103 110 110 105 108 110 108
159 159 155 150 149 145 138 133 134 132 127 123 119 123 125 124 123 122 123 117 110 104 109 119 119 117 111 114 102 101 105 96 95 98 103 103 106 112 111 115 116 116 116
161 160 157 153 151 145 142 137 136 135 132 128 122 120 119 120 118 118 121 117 106 98 104 122 131 129 115 115 110 103 97 94 95 95 100 109 113 114 112 118 118 118 117
162 162 160 158 154 149 146 143 140 136 137 135 131 127 121 121 119 118 118 110 100 95 91 115 125 131 124 118 111 109 100 96 91 94 95 106 112 115 122 121 123 118 117
165 167 164 162 158 154 152 150 145 140 141 140 136 129 129 129 124 119 114 111 100 91 90 100 106 121 117 107 123 112 102 90 83 92 96 102 105 118 112 118 120 120 123
170 170 169 167 162 158 155 153 150 144 147 143 137 133 133 133 129 122 120 116 105 97 96 101 103 112 106 100 109 112 96 83 70 87 98 104 106 112 119 124 120 126 125
172 173 171 171 166 162 160 160 154 147 148 141 135 132 132 136 140 136 129 120 120 112 104 108 109 101 97 99 107 100 88 84 80 89 105 111 120 109 112 119 127 129 129
174 174 174 174 170 167 165 164 156 150 149 145 143 139 133 137 151 147 137 122 128 129 125 120 107 113 113 104 120 113 90 82 79 86 104 111 124 131 136 125 123 129 127
178 176 175 176 173 170 170 165 160 157 158 148 144 137 133 133 138 144 146 142 134 131 135 135 133 138 170 146 118 105 102 72 63 71 101 119 119 129 133 138 145 133 131
181 177 177 177 174 174 174 168 162 159 157 157 153 138 146 140 151 157 142 135 119 139 154 146 136 120 120 168 136 113 88 89 57 65 89 125 128 129 125 130 131 141 142
184 181 179 179 176 180 176 175 168 165 170 150 142 133 138 124 143 174 186 152 141 134 150 165 165 114 123 120 141 134 126 88 87 66 79 120 130 124 132 138 139 144 145
187 184 184 181 179 183 179 178 172 162 165 163 157 142 131 139 146 151 139 151 147 159 151 159 138 145 147 131 146 149 135 110 100 92 68 89 123 133 127 137 132 118 156
190 190 188 186 184 184 181 178 173 175 178 183 171 158 151 149 172 158 175 166 157 157 125 137 117 116 144 156 131 131 122 118 109 101 93 77 88 101 117 133 154 247 274
195 193 192 191 189 184 182 184 188 189 197 199 201 189 177 164 178 182 188 192 179 161 163 122 127 102 133 155 171 144 145 133 138 111 109 82 74 83 81 65 118 142 271
202 199 198 196 193 190 189 190 193 200 201 201 200 197 184 181 174 175 198 205 189 203 213 172 138 106 149 166 181 112 166 191 183 192 167 154 93 83 71 53 23 91 49
207 204 203 201 197 196 196 197 201 206 204 204 208 210 197 193 192 191 222 231 212 244 218 184 171 184 170 188 195 169 152 181 209 193 218 221 225 3 314 6 10 234 331
208 208 206 207 202 200 202 204 211 213 209 213 217 215 210 209 211 212 228 232 234 242 220 231 243 217 173 181 194 187 195 186 202 230 229 227 234 251 268 310 312 299 297
215 212 209 208 204 203 204 206 212 215 218 220 219 222 222 222 224 225 229 229 234 256 242 250 223 194 200 186 191 195 212 224 222 236 228 228 245 263 248 200 262 310 215
217 216 212 208 207 207 209 213 216 219 221 225 231 235 237 236 233 231 229 237 243 239 234 247 224 209 218 201 184 200 229 244 218 259 246 236 240 236 217 198 177 132 115
222 221 218 216 215 215 216 220 223 224 227 231 234 237 240 242 240 236 235 236 241 236 234 239 234 224 229 210 205 223 242 241 235 262 290 272 266 256 237 221 218 219 200
221 225 222 220 220 219 221 225 229 230 231 234 239 239 239 242 243 239 238 238 241 238 233 234 244 234 225 225 230 243 252 250 247 254 272 286 285 275 260 257 253 249 248